Stations météo

réclame
Mon MeteoGroup
Termoli, Italie (16232): Température de l'air & dewpoint: 11.07.2018 13:00:00 - 17.07.2018 13:00:00 (CEST)Termoli, Italie (16232): Vitesse du vent: 11.07.2018 13:00:00 - 17.07.2018 13:00:00 (CEST)Termoli, Italie (16232): Direction du vent: 11.07.2018 13:00:00 - 17.07.2018 13:00:00 (CEST)Termoli, Italie (16232): reduced air pressure: 11.07.2018 13:00:00 - 17.07.2018 13:00:00 (CEST)Termoli, Italie (16232): visibility: 11.07.2018 13:00:00 - 17.07.2018 13:00:00 (CEST)Termoli, Italie (16232): Ensoleillement: 11.07.2018 13:00:00 - 17.07.2018 13:00:00 (CEST)
Date & Time tt [°C] td [°C] ff [km/h] ff [knt] dd ppp [hPa] vv [km] sd [min]
17.07.2018 13:00:00 - - - - - - - -
17.07.2018 12:00:00 - - - - - - - -
17.07.2018 11:00:00 23,4 21,5 8 4 ESE 1009,9 10 0
17.07.2018 10:00:00 - - - - - - - -
17.07.2018 09:00:00 - - - - - - - -
17.07.2018 08:00:00 23,2 21,1 13 7 SSE 1009,5 7 0
17.07.2018 07:00:00 - - - - - - - -
17.07.2018 06:00:00 - - - - - - - -
17.07.2018 05:00:00 - - - - - - - -
17.07.2018 04:00:00 - - - - - - - -
17.07.2018 03:00:00 - - - - - - - -
17.07.2018 02:00:00 - - - - - - - -
17.07.2018 01:00:00 - - - - - - - -
17.07.2018 00:00:00 - - - - - - - -
16.07.2018 23:00:00 - - - - - - - -
16.07.2018 22:00:00 - - - - - - - -
16.07.2018 21:00:00 - - - - - - - -
16.07.2018 20:00:00 28,6 27,0 13 7 E 1009,5 15 0
16.07.2018 19:00:00 - - - - - - - -
16.07.2018 18:00:00 - - - - - - - -
16.07.2018 17:00:00 29,4 26,4 15 8 E 1011,2 15 0
16.07.2018 16:00:00 - - - - - - - -
16.07.2018 15:00:00 - - - - - - - -
16.07.2018 14:00:00 30,8 27,2 9 5 NNE 1011,8 15 60
16.07.2018 13:00:00 - - - - - - - -
16.07.2018 12:00:00 - - - - - - - -
16.07.2018 11:00:00 29,8 23,0 9 5 NNE 1012,5 20 60
16.07.2018 10:00:00 - - - - - - - -
16.07.2018 09:00:00 - - - - - - - -
16.07.2018 08:00:00 26,0 21,9 5 3 W 1012,5 20 30
16.07.2018 07:00:00 - - - - - - - -
16.07.2018 06:00:00 - - - - - - - -
16.07.2018 05:00:00 - - - - - - - -
16.07.2018 04:00:00 - - - - - - - -
16.07.2018 03:00:00 - - - - - - - -
16.07.2018 02:00:00 - - - - - - - -
16.07.2018 01:00:00 - - - - - - - -
16.07.2018 00:00:00 - - - - - - - -
15.07.2018 23:00:00 - - - - - - - -
15.07.2018 22:00:00 - - - - - - - -
15.07.2018 21:00:00 - - - - - - - -
15.07.2018 20:00:00 29,0 24,6 0 0 N 1012,4 20 24
15.07.2018 19:00:00 - - - - - - - -
15.07.2018 18:00:00 - - - - - - - -
15.07.2018 17:00:00 29,0 23,7 18 10 N 1012,3 20 60
15.07.2018 16:00:00 - - - - - - - -
15.07.2018 15:00:00 - - - - - - - -
15.07.2018 14:00:00 29,0 22,5 15 8 N 1012,9 20 60
15.07.2018 13:00:00 - - - - - - - -
15.07.2018 12:00:00 - - - - - - - -
15.07.2018 11:00:00 30,2 21,3 9 5 NNE 1012,6 20 60
15.07.2018 10:00:00 - - - - - - - -
15.07.2018 09:00:00 - - - - - - - -
15.07.2018 08:00:00 26,0 22,1 5 3 ENE 1012,8 20 30
15.07.2018 07:00:00 - - - - - - - -
15.07.2018 06:00:00 - - - - - - - -
15.07.2018 05:00:00 - - - - - - - -
15.07.2018 04:00:00 - - - - - - - -
15.07.2018 03:00:00 - - - - - - - -
15.07.2018 02:00:00 - - - - - - - -
15.07.2018 01:00:00 - - - - - - - -
15.07.2018 00:00:00 - - - - - - - -
14.07.2018 23:00:00 - - - - - - - -
14.07.2018 22:00:00 - - - - - - - -
14.07.2018 21:00:00 - - - - - - - -
14.07.2018 20:00:00 29,0 22,3 5 3 ENE 1014,0 18 24
14.07.2018 19:00:00 - - - - - - - -
14.07.2018 18:00:00 - - - - - - - -
14.07.2018 17:00:00 31,0 22,3 11 6 E 1015,0 10 60
14.07.2018 16:00:00 - - - - - - - -
14.07.2018 15:00:00 - - - - - - - -
14.07.2018 14:00:00 30,2 23,9 5 3 N 1016,8 18 60
14.07.2018 13:00:00 - - - - - - - -
14.07.2018 12:00:00 - - - - - - - -
14.07.2018 11:00:00 27,0 24,3 9 5 NW 1017,1 18 60
14.07.2018 10:00:00 - - - - - - - -
14.07.2018 09:00:00 - - - - - - - -
14.07.2018 08:00:00 26,0 21,2 8 4 W 1016,9 20 30
14.07.2018 07:00:00 - - - - - - - -
14.07.2018 06:00:00 - - - - - - - -
14.07.2018 05:00:00 - - - - - - - -
14.07.2018 04:00:00 - - - - - - - -
14.07.2018 03:00:00 - - - - - - - -
14.07.2018 02:00:00 - - - - - - - -
14.07.2018 01:00:00 - - - - - - - -
14.07.2018 00:00:00 - - - - - - - -
13.07.2018 23:00:00 - - - - - - - -
13.07.2018 22:00:00 - - - - - - - -
13.07.2018 21:00:00 - - - - - - - -
13.07.2018 20:00:00 30,2 21,3 11 6 NW 1016,0 18 24
13.07.2018 19:00:00 - - - - - - - -
13.07.2018 18:00:00 - - - - - - - -
13.07.2018 17:00:00 29,0 21,5 11 6 N 1016,0 20 60
13.07.2018 16:00:00 - - - - - - - -
13.07.2018 15:00:00 - - - - - - - -
13.07.2018 14:00:00 29,6 24,5 13 7 NE 1016,1 15 60
13.07.2018 13:00:00 - - - - - - - -
13.07.2018 12:00:00 - - - - - - - -
13.07.2018 11:00:00 28,2 22,9 5 3 NNW 1016,4 10 60
13.07.2018 10:00:00 - - - - - - - -
13.07.2018 09:00:00 - - - - - - - -
13.07.2018 08:00:00 25,2 22,7 4 2 S 1016,1 20 48
13.07.2018 07:00:00 - - - - - - - -
13.07.2018 06:00:00 - - - - - - - -
13.07.2018 05:00:00 - - - - - - - -
13.07.2018 04:00:00 - - - - - - - -
13.07.2018 03:00:00 - - - - - - - -
13.07.2018 02:00:00 - - - - - - - -
13.07.2018 01:00:00 - - - - - - - -
13.07.2018 00:00:00 - - - - - - - -
12.07.2018 23:00:00 - - - - - - - -
12.07.2018 22:00:00 - - - - - - - -
12.07.2018 21:00:00 - - - - - - - -
12.07.2018 20:00:00 28,2 25,2 4 2 NNE 1014,2 10 24
12.07.2018 19:00:00 - - - - - - - -
12.07.2018 18:00:00 - - - - - - - -
12.07.2018 17:00:00 29,4 24,7 5 3 ENE 1014,1 10 60
12.07.2018 16:00:00 - - - - - - - -
12.07.2018 15:00:00 - - - - - - - -
12.07.2018 14:00:00 26,2 25,5 16 9 N 1014,4 12 60
12.07.2018 13:00:00 - - - - - - - -
12.07.2018 12:00:00 - - - - - - - -
12.07.2018 11:00:00 27,2 25,2 18 10 NW 1014,5 20 60
12.07.2018 10:00:00 - - - - - - - -
12.07.2018 09:00:00 - - - - - - - -
12.07.2018 08:00:00 25,8 19,0 21 11 NW 1013,6 25 48
12.07.2018 07:00:00 - - - - - - - -
12.07.2018 06:00:00 - - - - - - - -
12.07.2018 05:00:00 - - - - - - - -
12.07.2018 04:00:00 - - - - - - - -
12.07.2018 03:00:00 - - - - - - - -
12.07.2018 02:00:00 - - - - - - - -
12.07.2018 01:00:00 - - - - - - - -
12.07.2018 00:00:00 - - - - - - - -
11.07.2018 23:00:00 - - - - - - - -
11.07.2018 22:00:00 - - - - - - - -
11.07.2018 21:00:00 - - - - - - - -
11.07.2018 20:00:00 28,6 26,0 13 7 SSE 1010,2 15 30
11.07.2018 19:00:00 - - - - - - - -
11.07.2018 18:00:00 - - - - - - - -
11.07.2018 17:00:00 31,2 27,1 13 7 NE 1010,2 15 60
11.07.2018 16:00:00 - - - - - - - -
11.07.2018 15:00:00 - - - - - - - -
11.07.2018 14:00:00 30,8 25,2 11 6 ENE 1010,7 20 60
11.07.2018 13:00:00 - - - - - - - -

tt = Température de l'air
td = dewpoint
ff = Vitesse du vent
dd = Direction du vent
ppp = reduced air pressure
vv = visibility
sd = Ensoleillement

stations d'obs. à proximité